Chiang Mai, Thailand

3:31 PM +07 on May 28, 2017 (GMT +0700)
Chiang Mai International

Weather History for VTCC - November, 2012

Change the Weather History Date:

Friday, November 2, 2012

  Actual Average Record
Temperature  
Mean Temperature 82 °F -  
Max Temperature 90 °F 84 °F 94 °F (2014)
Min Temperature 73 °F 65 °F 60 °F (2000)
Cooling Degree Days 16    
Growing Degree Days 32 (Base 50)    
Moisture  
Dew Point 68 °F    
Average Humidity 67    
Maximum Humidity 90    
Minimum Humidity 43    
Precipitation  
Precipitation 0.00 in 0.07 in - ()
Sea Level Pressure  
Sea Level Pressure 29.93 in    
Wind  
Wind Speed 2 mph ()    
Max Wind Speed 6 mph    
Max Gust Speed -    
Visibility 6.2 miles    
Events      
Averages and records for this station are not official NWS values.
T = Trace of Precipitation, MM = Missing Value Source: Averaged Metar Reports

Daily Weather History Graph

Daily Weather History Graph

Search for Another Location

Airport or City:

Trip Planner

Search our weather history database for the weather conditions in past years. The results will help you decide how hot, cold, wet, or windy it might be!

Date:

Astronomy

Nov. 02, 2012 Rise Set
Actual Time 6:24 AM +07 5:50 PM +07
Civil Twilight 6:02 AM +07 6:12 PM +07
Nautical Twilight 5:36 AM +07 6:38 PM +07
Astronomical Twilight 5:10 AM +07 7:04 PM +07
Moon 8:27 PM +07 (11/2) 9:03 AM +07 (11/2)
Length of Visible Light 12h 10m
Length of Day
11h 25m
Waning Gibbous, 90% of the Moon is Illuminated
Nov 2
Waning Gibbous
Nov 7
Last Quarter
Nov 14
New
Nov 20
First Quarter
Nov 28
Full

Hourly Weather History & Observations

Time (+07) Temp. Heat Index Dew Point Humidity Pressure Visibility Wind Dir Wind Speed Gust Speed Precip Events Conditions
12:00 AM 78.8 °F - 68.0 °F 69% 29.98 in 6.2 mi SW 1.2 mph - N/A   Scattered Clouds
12:30 AM 78.8 °F - 68.0 °F 69% 29.98 in 6.2 mi ESE 2.3 mph - N/A   Scattered Clouds
1:00 AM 79 °F - 71 °F 70% 29.91 in 6 mi Calm Calm - -   Partly Cloudy
1:00 AM 78.8 °F - 69.8 °F 74% 29.95 in 6.2 mi Calm Calm - N/A   Partly Cloudy
1:30 AM 78.8 °F - 69.8 °F 74% 29.95 in 6.2 mi South 2.3 mph - N/A   Partly Cloudy
2:30 AM 75.2 °F - 68.0 °F 78% 29.95 in 6.2 mi NE 2.3 mph - N/A   Partly Cloudy
3:00 AM 75.2 °F - 68.0 °F 78% 29.95 in 6.2 mi NNE 3.5 mph - N/A   Partly Cloudy
3:30 AM 75.2 °F - 68.0 °F 78% 29.95 in 6.2 mi Calm Calm - N/A   Partly Cloudy
4:00 AM 75.2 °F - 68.0 °F 78% 29.95 in 6.2 mi Calm Calm - N/A   Partly Cloudy
4:30 AM 75.2 °F - 68.0 °F 78% 29.95 in 6.2 mi Calm Calm - N/A   Partly Cloudy
5:00 AM 73.4 °F - 68.0 °F 83% 29.98 in 6.2 mi NW 2.3 mph - N/A   Partly Cloudy
5:30 AM 73.4 °F - 68.0 °F 83% 29.98 in 6.2 mi Calm Calm - N/A   Partly Cloudy
6:00 AM 73.4 °F - 68.0 °F 83% 29.98 in 6.2 mi Calm Calm - N/A   Partly Cloudy
6:30 AM 73.4 °F - 68.0 °F 83% 29.98 in 6.2 mi Calm Calm - N/A   Partly Cloudy
7:00 AM 73 °F - 71 °F 90% 29.98 in 6 mi Calm Calm - -   Scattered Clouds
7:00 AM 73.4 °F - 68.0 °F 83% 30.01 in 6.2 mi West 2.3 mph - N/A   Partly Cloudy
7:30 AM 73.4 °F - 69.8 °F 88% 30.01 in 6.2 mi SW 3.5 mph - N/A   Partly Cloudy
8:00 AM 75.2 °F - 69.8 °F 83% 30.01 in 6.2 mi SSW 2.3 mph - N/A   Partly Cloudy
8:30 AM 78.8 °F - 69.8 °F 74% 30.04 in 6.2 mi South 2.3 mph - N/A   Partly Cloudy
9:00 AM 78.8 °F - 69.8 °F 74% 30.04 in 6.2 mi ENE 1.2 mph - N/A   Scattered Clouds
9:30 AM 80.6 °F 83.9 °F 69.8 °F 70% 30.04 in 6.2 mi NNE 2.3 mph - N/A   Scattered Clouds
10:00 AM 80.6 °F 83.2 °F 68.0 °F 65% 30.04 in 6.2 mi NW 2.3 mph - N/A   Scattered Clouds
10:30 AM 82.4 °F 85.4 °F 68.0 °F 62% 30.01 in 6.2 mi WNW 2.3 mph - N/A   Scattered Clouds
11:00 AM 82.4 °F 84.6 °F 66.2 °F 58% 30.01 in 6.2 mi NNW 3.5 mph - N/A   Scattered Clouds
11:30 AM 86.0 °F 89.4 °F 68.0 °F 55% 29.98 in 6.2 mi ENE 2.3 mph - N/A   Scattered Clouds
12:00 PM 86.0 °F 89.4 °F 68.0 °F 55% 29.95 in 6.2 mi SSE 4.6 mph - N/A   Scattered Clouds
12:30 PM 86.0 °F 88.2 °F 66.2 °F 51% 29.92 in 6.2 mi South 3.5 mph - N/A   Mostly Cloudy
1:00 PM 86 °F - 71 °F 53% 29.85 in 6 mi SSW 2.3 mph - -   Partly Cloudy
1:00 PM 86.0 °F 88.2 °F 66.2 °F 51% 29.92 in 6.2 mi East 5.8 mph - N/A   Scattered Clouds
1:30 PM 87.8 °F 90.4 °F 66.2 °F 49% 29.89 in 6.2 mi SSW 4.6 mph - N/A   Scattered Clouds
2:00 PM 86.0 °F 88.2 °F 66.2 °F 51% 29.86 in 6.2 mi NE 5.8 mph - N/A   Scattered Clouds
2:30 PM 87.8 °F 90.4 °F 66.2 °F 49% 29.86 in 6.2 mi SE 4.6 mph - N/A   Scattered Clouds
3:00 PM 87.8 °F 90.4 °F 66.2 °F 49% 29.83 in 6.2 mi East 3.5 mph - N/A   Scattered Clouds
3:30 PM 87.8 °F 90.4 °F 66.2 °F 49% 29.83 in 6.2 mi ENE 3.5 mph - N/A   Partly Cloudy
4:00 PM 89.6 °F 91.1 °F 64.4 °F 43% 29.83 in 6.2 mi South 4.6 mph - N/A   Partly Cloudy
4:30 PM 87.8 °F 89.4 °F 64.4 °F 46% 29.83 in 6.2 mi SE 3.5 mph - N/A   Partly Cloudy
5:00 PM 87.8 °F 89.4 °F 64.4 °F 46% 29.83 in 6.2 mi SSE 3.5 mph - N/A   Partly Cloudy
5:30 PM 86.0 °F 87.3 °F 64.4 °F 48% 29.83 in 6.2 mi South 4.6 mph - N/A   Partly Cloudy
6:00 PM 84.2 °F 88.4 °F 69.8 °F 62% 29.86 in 6.2 mi West 4.6 mph - N/A   Partly Cloudy
6:30 PM 82.4 °F 86.3 °F 69.8 °F 66% 29.86 in 6.2 mi West 3.5 mph - N/A   Partly Cloudy
7:00 PM 84 °F - 72 °F 59% 29.82 in 6 mi Calm Calm - -  
7:00 PM 80.6 °F 83.9 °F 69.8 °F 70% 29.86 in 6.2 mi West 4.6 mph - N/A   Partly Cloudy
7:30 PM 82.4 °F 86.3 °F 69.8 °F 66% 29.86 in 6.2 mi South 3.5 mph - N/A   Partly Cloudy
8:00 PM 82.4 °F 86.3 °F 69.8 °F 66% 29.89 in 6.2 mi WSW 4.6 mph - N/A   Partly Cloudy
8:30 PM 80.6 °F 83.9 °F 69.8 °F 70% 29.89 in 6.2 mi SW 4.6 mph - N/A   Partly Cloudy
9:00 PM 80.6 °F 83.9 °F 69.8 °F 70% 29.92 in 6.2 mi SW 2.3 mph - N/A   Partly Cloudy
9:30 PM 78.8 °F - 69.8 °F 74% 29.92 in 6.2 mi West 4.6 mph - N/A   Partly Cloudy
10:00 PM 77.0 °F - 69.8 °F 78% 29.92 in 6.2 mi WSW 2.3 mph - N/A   Partly Cloudy
10:30 PM 77.0 °F - 69.8 °F 78% 29.92 in 6.2 mi SW 3.5 mph - N/A   Partly Cloudy
11:00 PM 77.0 °F - 69.8 °F 78% 29.92 in 6.2 mi WSW 3.5 mph - N/A   Partly Cloudy
11:30 PM 77.0 °F - 69.8 °F 78% 29.92 in 6.2 mi South 2.3 mph - N/A   Partly Cloudy